sat.trackr.live / text

‹ back to catalog

STARLINK-1873

NORAD 47158 · 2020-088AN

PAYLOAD ACTIVE UNKNOWN

§ Identity

Operator
Country
US
Launch date
2020-11-25
Launch site
AFETR
Launch vehicle
Mass (kg)
RCS (m²)

Purposes: comms

External: N2YO · Heavens-Above · Gunter

§ Orbital elements

Epoch: 2026-08-12T04:01:59.422368Z

Period
87.55 min
Inclination
53.0170°
Eccentricity
0.0004036
Mean motion
16.44739971 rev/d
Perigee alt
150.6 km
Apogee alt
155.9 km
Semi-major
6,531.4 km
B*
3.6898e-4
RAAN
210.1923°
Arg perigee
303.3808°
Mean anomaly
56.6854°
Rev number
31,685

§ Raw data

STARLINK-18731 47158U 20088AN  26224.16804887  .11506336  12532-4  36898-3 0  99902 47158  53.0170 210.1923 0004036 303.3808  56.6854 16.44739971316857

JSON: /api/v1/satellites/47158 · /tle

For live sub-satellite position, see the globe view (requires WebGL).

§ Visibility from observer

Set your observer location to see the next 7 days of passes ≥ 10°. The values pass through the URL so the page stays shareable.

No JS? Fill the form by hand. The geolocation button needs JavaScript.